Regional Weather Roundup
Issued by NWS Northern Indiana

Home | Current Version | Previous Version | Text Only | Print | Product List | Glossary Off
Versions: 1 2 3 4 5 6 7 8 9 10 11 12 13 14 15 16 17 18 19 20 21 22 23 24 25 26 27 28 29 30 31 32 33 34 35 36 37 38 39 40 41 42 43 44 45 46 47 48 49 50

000
ASUS43 KIWX 181500
RWRIWX

KIWX WEATHER ROUNDUP
NATIONAL WEATHER SERVICE NORTHERN INDIANA
1000 AM EST THU DEC 18 2014

NOTE: "FAIR" INDICATES FEW OR NO CLOUDS BELOW 12,000 FEET WITH NO
SIGNIFICANT WEATHER AND/OR OBSTRUCTIONS TO VISIBILITY.

* THESE STATIONS ARE NOT UNDER NWS QUALITY CONTROL. THEY ALSO MAY NOT
  REPORT WEATHER SUCH AS PRECIPITATION OR FOG.

INZ001>027-181600-
NORTHERN INDIANA

CITY           SKY/WX    TMP DP  RH WIND       PRES   REMARKS
GARY*          CLOUDY    27  18  69 W6        30.31R WCI  20
SOUTH BEND     CLOUDY    27  20  75 SW6       30.28R WCI  20
ELKHART*       CLOUDY    28  21  74 SW8       30.27R WCI  20
GOSHEN         CLOUDY    27  22  81 W8        30.26S WCI  19
ANGOLA*        CLOUDY    27  25  93 W7        30.23S WCI  19
FORT WAYNE     FLURRIES  27  21  78 SW6       30.27S WCI  20

$$
INZ028>050-181600-
CENTRAL INDIANA

CITY           SKY/WX    TMP DP  RH WIND       PRES   REMARKS
LAFAYETTE      CLOUDY    24  18  77 W6        30.32R WCI  17
KOKOMO*        CLOUDY    27  18  69 SW3       30.29R
MUNCIE*        CLOUDY    26  19  74 CALM      30.28S
INDIANAPOLIS   CLOUDY    25  19  78 SW5       30.30R WCI  19

$$
MIZ043>046-050>051-056>058-064>065-071>073-077>080-181600-
SOUTHWEST LOWER MICHIGAN

CITY           SKY/WX    TMP DP  RH WIND       PRES   REMARKS
BATTLE CREEK   CLOUDY    31  24  75 W9        30.23R WCI  23
BENTON HARBOR  CLOUDY    28  23  81 SW7       30.27R WCI  21
COLDWATER*     CLOUDY    29  24  83 W9        30.22S WCI  20
HILLSDALE*     CLOUDY    29  26  89 W7        30.21R WCI  22
HOLLAND        CLOUDY    34  26  72 SW8       30.24S WCI  27
GRAND RAPIDS   CLOUDY    31  28  89 W7        30.22R WCI  24
KALAMAZOO      FLURRIES  29  24  82 W9        30.24R WCI  20
STURGIS*       MIX PCPN  27  25  93 W6        30.24R WCI  20
THREE RIVERS*  CLOUDY    29  25  86 W7        30.25S WCI  22

$$
OHZ001>008-015>018-024>025-181600-
NORTHWEST OHIO

CITY           SKY/WX    TMP DP  RH WIND       PRES   REMARKS
DEFIANCE       CLOUDY    29  23  78 VRB5      30.26  WCI  24
FINDLAY        CLOUDY    29  22  75 W8        30.24R WCI  21
TOLEDO EXPRESS CLOUDY    29  23  78 W12       30.24R WCI  19
TOLEDO METCALF CLOUDY    31  23  72 W9        30.25R WCI  23
LIMA           CLOUDY    31  22  69 W7        30.25R WCI  24

$$
AND FOR LAKE MICHIGAN COASTAL AND OPEN LAKE BUOY OBSERVATIONS

STATION/POSITION TEMP    WIND        PRES    VSBY  WAVE
                 AIR SEA DIR/SP/G                  HT/PER
                 (F)     (DEG/KT/KT) (MB)    (MI)  (FT/S)
CALUMET HARBOR    25     200/  5/  7 1024.6R
SAINT JOSEPH      30     260/  3/  6 1024.7F

$$
&&


USA.gov is the U.S. government's official web portal to all federal, state and local government web resources and services.